Date String (YYYY-MM-DD hh:mm:ss) UTC,Instrument flags,Ambient pressure (hPa),Sample flow (lpm),Bypass flow (lpm),Sample temperature (°C),Ambient temperature (°C),ASC tube jacket temperature (°C),LED temperature (°C),Box temperature (°C),Sample RH (%),Span deviation,Mass concentration (μg/m³),Mass concentration (μg/m³),Mass concentration (μg/m³)
DateTimeUTC,F1_M11,P_M11,Q1_M11,Q2_M11,T1_M11,T2_M11,T3_M11,T4_M11,T5_M11,U1_M11,ZSPAN_M11,X0_M11,X2_M11,X1_M11
2022-01-29 11:00:00,,0829.0,4.99,0.00,22.6,22.8,00.0,31.4,24.4,03.4,0000.0,0000.80,0000.46,0000.37
2022-01-29 11:01:00,,0829.1,4.99,0.00,22.6,22.6,00.0,31.4,24.4,03.5,0000.0,0000.71,0000.45,0000.36
2022-01-29 11:02:00,,0829.1,5.00,0.00,22.5,22.4,00.0,31.4,24.3,03.5,0000.0,0000.69,0000.46,0000.36
2022-01-29 11:03:00,,0829.1,5.00,0.00,22.5,22.2,00.0,31.4,24.3,03.7,0000.0,0000.69,0000.46,0000.36
2022-01-29 11:04:00,,0829.1,5.00,0.00,22.5,22.1,00.0,31.4,24.3,03.9,0000.0,0000.68,0000.45,0000.35
2022-01-29 11:05:00,,0829.1,5.01,0.00,22.5,22.0,00.0,31.4,24.2,04.0,0000.0,0000.66,0000.43,0000.35
2022-01-29 11:06:00,,0829.1,4.99,0.00,22.5,22.0,00.0,31.5,24.2,03.5,0000.0,0000.59,0000.41,0000.34
2022-01-29 11:07:00,,0829.1,5.00,0.00,22.5,21.9,00.0,31.5,24.2,04.0,0000.0,0000.66,0000.41,0000.33
2022-01-29 11:08:00,,0829.1,5.00,0.00,22.5,21.9,00.0,31.5,24.2,04.5,0000.0,0000.99,0000.40,0000.32
2022-01-29 11:09:00,,0829.2,5.00,0.00,22.4,21.8,00.0,31.4,24.2,04.2,0000.0,0001.53,0000.40,0000.32
2022-01-29 11:10:00,,0829.2,5.00,0.00,22.4,21.8,00.0,31.4,24.1,04.0,0000.0,0001.57,0000.42,0000.32
2022-01-29 11:11:00,,0829.1,5.00,0.00,22.4,21.8,00.0,31.4,24.1,04.0,0000.0,0001.54,0000.41,0000.31
2022-01-29 11:12:00,,0829.1,4.99,0.00,22.4,21.7,00.0,31.4,24.1,03.8,0000.0,0001.56,0000.41,0000.30
2022-01-29 11:13:00,,0829.1,4.99,0.00,22.4,21.7,00.0,31.4,24.1,03.7,0000.0,0001.56,0000.40,0000.29
2022-01-29 11:14:00,,0829.0,5.00,0.00,22.4,21.7,00.0,31.4,24.1,03.6,0000.0,0001.59,0000.41,0000.29
2022-01-29 11:15:00,,0829.1,5.01,0.00,22.4,21.7,00.0,31.4,24.1,03.6,0000.0,0001.62,0000.43,0000.28
2022-01-29 11:16:00,,0829.1,5.00,0.00,22.4,21.7,00.0,31.4,24.1,03.8,0000.0,0001.70,0000.46,0000.29
2022-01-29 11:17:00,,0829.1,5.00,0.00,22.4,21.7,00.0,31.4,24.1,03.9,0000.0,0001.86,0000.49,0000.29
2022-01-29 11:18:00,,0829.1,5.01,0.00,22.3,21.7,00.0,31.4,24.1,03.8,0000.0,0002.69,0000.56,0000.29
2022-01-29 11:19:00,,0829.1,4.99,0.00,22.3,21.6,00.0,31.4,24.1,04.0,0000.0,0002.71,0000.60,0000.29
2022-01-29 11:20:00,,0829.1,5.00,0.00,22.3,21.6,00.0,31.4,24.1,04.1,0000.0,0002.69,0000.64,0000.29
2022-01-29 11:21:00,,0829.2,4.99,0.00,22.3,21.6,00.0,31.3,24.1,04.1,0000.0,0002.74,0000.64,0000.28
2022-01-29 11:22:00,,0829.1,5.00,0.00,22.3,21.6,00.0,31.3,24.1,04.1,0000.0,0003.39,0000.67,0000.29
2022-01-29 11:23:00,,0829.1,5.00,0.00,22.3,21.6,00.0,31.3,24.1,04.1,0000.0,0004.23,0000.70,0000.29
2022-01-29 11:24:00,,0829.1,5.00,0.00,22.3,21.6,00.0,31.3,24.1,04.1,0000.0,0004.32,0000.76,0000.30
2022-01-29 11:25:00,,0829.2,5.01,0.00,22.3,21.7,00.0,31.3,24.1,04.2,0000.0,0004.64,0000.82,0000.31
2022-01-29 11:26:00,,0829.2,5.00,0.00,22.3,21.6,00.0,31.3,24.1,04.0,0000.0,0004.98,0000.90,0000.32
2022-01-29 11:27:00,,0829.2,5.01,0.00,22.3,21.6,00.0,31.3,24.1,03.8,0000.0,0006.33,0000.95,0000.32
2022-01-29 11:28:00,,0829.2,5.01,0.00,22.3,21.6,00.0,31.3,24.1,03.6,0000.0,0006.60,0001.05,0000.34
2022-01-29 11:29:00,,0829.2,5.00,0.00,22.3,21.6,00.0,31.3,24.1,03.7,0000.0,0006.56,0001.10,0000.35
2022-01-29 11:30:00,,0829.2,4.98,0.00,22.3,21.7,00.0,31.3,24.1,03.9,0000.0,0007.64,0001.29,0000.38
2022-01-29 11:31:00,,0829.2,5.01,0.00,22.3,22.0,00.0,31.3,24.1,04.1,0000.0,0007.85,0001.48,0000.40
2022-01-29 11:32:00,,0829.2,5.00,0.00,22.5,22.8,00.0,31.4,24.4,04.0,0000.0,0008.70,0001.67,0000.43
2022-01-29 11:33:00,,0829.2,5.01,0.00,22.6,23.4,00.0,31.4,24.6,04.0,0000.0,0009.73,0001.92,0000.47
2022-01-29 11:34:00,,0829.2,4.99,0.00,22.7,23.3,00.0,31.4,24.7,04.1,0000.0,0010.58,0002.16,0000.51
2022-01-29 11:35:00,,0829.2,5.00,0.00,22.7,23.1,00.0,31.5,24.7,04.0,0000.0,0012.01,0002.54,0000.56
2022-01-29 11:36:00,,0829.2,4.99,0.00,22.7,22.9,00.0,31.5,24.6,03.9,0000.0,0014.99,0002.99,0000.60
2022-01-29 11:37:00,,0829.2,4.99,0.00,22.7,22.7,00.0,31.5,24.6,03.8,0000.0,0017.75,0003.30,0000.64
2022-01-29 11:38:00,,0829.3,5.00,0.00,22.7,22.6,00.0,31.5,24.6,03.7,0000.0,0020.31,0003.56,0000.69
2022-01-29 11:39:00,,0829.2,5.01,0.00,22.7,22.5,00.0,31.5,24.6,03.5,0000.0,0021.65,0003.74,0000.71
2022-01-29 11:40:00,,0829.2,5.00,0.00,22.7,22.4,00.0,31.5,24.6,03.4,0000.0,0022.45,0003.81,0000.73
2022-01-29 11:41:00,,0829.2,5.00,0.00,22.7,22.3,00.0,31.5,24.5,03.3,0000.0,0022.59,0003.82,0000.74
2022-01-29 11:42:00,,0829.2,5.00,0.00,22.7,22.3,00.0,31.6,24.6,03.3,0000.0,0022.84,0003.79,0000.73
2022-01-29 11:43:00,,0829.2,4.98,0.00,22.7,22.2,00.0,31.6,24.6,03.3,0000.0,0023.85,0003.79,0000.73
2022-01-29 11:44:00,,0829.2,5.00,0.00,22.7,22.2,00.0,31.6,24.5,03.3,0000.0,0023.69,0003.72,0000.71
2022-01-29 11:45:00,,0829.2,5.01,0.00,22.7,22.2,00.0,31.6,24.5,03.3,0000.0,0023.32,0003.69,0000.69
2022-01-29 11:46:00,,0829.2,4.99,0.00,22.7,22.1,00.0,31.6,24.5,03.3,0000.0,0023.41,0003.60,0000.66
2022-01-29 11:47:00,,0829.2,5.01,0.00,22.7,22.1,00.0,31.6,24.5,03.2,0000.0,0020.83,0003.36,0000.63
2022-01-29 11:48:00,,0829.2,4.99,0.00,22.7,22.1,00.0,31.6,24.5,03.2,0000.0,0018.33,0003.15,0000.61
2022-01-29 11:49:00,,0829.2,5.01,0.00,22.7,22.1,00.0,31.6,24.5,03.2,0000.0,0015.98,0002.76,0000.58
2022-01-29 11:50:00,,0829.2,5.00,0.00,22.7,22.0,00.0,31.6,24.5,03.2,0000.0,0014.67,0002.43,0000.56
2022-01-29 11:51:00,,0829.2,4.98,0.00,22.7,22.0,00.0,31.6,24.4,03.1,0000.0,0013.58,0002.18,0000.54
2022-01-29 11:52:00,,0829.2,5.01,0.00,22.7,22.0,00.0,31.6,24.4,03.1,0000.0,0012.80,0001.97,0000.52
2022-01-29 11:53:00,,0829.2,5.02,0.00,22.6,22.0,00.0,31.6,24.4,03.1,0000.0,0012.05,0001.84,0000.51
2022-01-29 11:54:00,,0829.2,4.99,0.00,22.6,21.9,00.0,31.6,24.4,03.1,0000.0,0010.30,0001.68,0000.49
2022-01-29 11:55:00,,0829.2,5.00,0.00,22.6,21.9,00.0,31.6,24.4,03.1,0000.0,0009.10,0001.55,0000.48
2022-01-29 11:56:00,,0829.2,4.99,0.00,22.6,21.9,00.0,31.6,24.4,03.2,0000.0,0008.39,0001.43,0000.48
2022-01-29 11:57:00,,0829.2,5.01,0.00,22.6,21.9,00.0,31.6,24.4,03.3,0000.0,0007.92,0001.31,0000.48
2022-01-29 11:58:00,,0829.2,5.01,0.00,22.6,21.9,00.0,31.6,24.4,03.5,0000.0,0008.39,0001.47,0000.49
2022-01-29 11:59:00,,0829.3,5.01,0.00,22.6,21.9,00.0,31.5,24.4,03.9,0000.0,0010.04,0001.82,0000.52
